owner,sensor,date,latitude,longitude,vertical_datum,wind_speed,wind_to_direction,wind_speed_of_gust,qcFlag 
DISL,ioos:station:DISL:MBLA:1,2010-10-01T00:00:00Z,30.4367,-88.0117,14.2,5.39,332.8,-9999.0,'1111122,1111122,1111122' 
DISL,ioos:station:DISL:MBLA:1,2010-10-01T00:30:00Z,30.4367,-88.0117,14.2,4.42,327.8,-9999.0,'1111122,1111122,1111122' 
DISL,ioos:station:DISL:MBLA:1,2010-10-01T01:00:00Z,30.4367,-88.0117,14.2,4.59,322.8,-9999.0,'1111122,1111122,1111122' 
DISL,ioos:station:DISL:MBLA:1,2010-10-01T01:30:00Z,30.4367,-88.0117,14.2,4.73,324.6,-9999.0,'1111122,1111122,1111122' 
DISL,ioos:station:DISL:MBLA:1,2010-10-01T02:00:00Z,30.4367,-88.0117,14.2,3.81,304.6,-9999.0,'1111122,1111122,1111122' 
DISL,ioos:station:DISL:MBLA:1,2010-10-01T02:30:00Z,30.4367,-88.0117,14.2,4.22,323.1,-9999.0,'1111122,1111122,1111122' 
DISL,ioos:station:DISL:MBLA:1,2010-10-01T03:00:00Z,30.4367,-88.0117,14.2,4.22,337.4,-9999.0,'1111122,1111122,1111122' 
DISL,ioos:station:DISL:MBLA:1,2010-10-01T03:30:00Z,30.4367,-88.0117,14.2,4.66,318.6,-9999.0,'1111122,1111122,1111122' 
DISL,ioos:station:DISL:MBLA:1,2010-10-01T04:00:00Z,30.4367,-88.0117,14.2,4.54,329.3,-9999.0,'1111122,1111122,1111122' 
DISL,ioos:station:DISL:MBLA:1,2010-10-01T04:30:00Z,30.4367,-88.0117,14.2,5.16,339.0,-9999.0,'1111122,1111122,1111122' 
DISL,ioos:station:DISL:MBLA:1,2010-10-01T05:00:00Z,30.4367,-88.0117,14.2,4.83,346.9,-9999.0,'1111122,1111122,1111122' 
DISL,ioos:station:DISL:MBLA:1,2010-10-01T05:30:00Z,30.4367,-88.0117,14.2,4.19,340.6,-9999.0,'1111122,1111122,1111122' 
DISL,ioos:station:DISL:MBLA:1,2010-10-01T06:00:00Z,30.4367,-88.0117,14.2,5.35,332.4,-9999.0,'1111122,1111122,1111122' 
DISL,ioos:station:DISL:MBLA:1,2010-10-01T06:30:00Z,30.4367,-88.0117,14.2,6.1,330.1,-9999.0,'1111122,1111122,1111122' 
DISL,ioos:station:DISL:MBLA:1,2010-10-01T07:00:00Z,30.4367,-88.0117,14.2,5.08,334.8,-9999.0,'1111122,1111122,1111122' 
DISL,ioos:station:DISL:MBLA:1,2010-10-01T07:30:00Z,30.4367,-88.0117,14.2,5.13,337.2,-9999.0,'1111122,1111122,1111122' 
DISL,ioos:station:DISL:MBLA:1,2010-10-01T08:00:00Z,30.4367,-88.0117,14.2,5.91,341.1,-9999.0,'1111122,1111122,1111122' 
DISL,ioos:station:DISL:MBLA:1,2010-10-01T08:30:00Z,30.4367,-88.0117,14.2,5.6,336.2,-9999.0,'1111122,1111122,1111122' 
DISL,ioos:station:DISL:MBLA:1,2010-10-01T09:00:00Z,30.4367,-88.0117,14.2,4.69,344.0,-9999.0,'1111122,1111122,1111122' 
DISL,ioos:station:DISL:MBLA:1,2010-10-01T09:30:00Z,30.4367,-88.0117,14.2,5.55,338.0,-9999.0,'1111122,1111122,1111122' 
DISL,ioos:station:DISL:MBLA:1,2010-10-01T10:00:00Z,30.4367,-88.0117,14.2,7.58,340.1,-9999.0,'1111122,1111122,1111122' 
DISL,ioos:station:DISL:MBLA:1,2010-10-01T10:30:00Z,30.4367,-88.0117,14.2,7.53,343.9,-9999.0,'1111122,1111122,1111122' 
DISL,ioos:station:DISL:MBLA:1,2010-10-01T11:00:00Z,30.4367,-88.0117,14.2,8.61,354.9,-9999.0,'1111122,1111122,1111122' 
DISL,ioos:station:DISL:MBLA:1,2010-10-01T11:30:00Z,30.4367,-88.0117,14.2,8.39,352.7,-9999.0,'1111122,1111122,1111122' 
DISL,ioos:station:DISL:MBLA:1,2010-10-01T12:00:00Z,30.4367,-88.0117,14.2,9.83,354.9,-9999.0,'1111122,1111122,1111122' 
DISL,ioos:station:DISL:MBLA:1,2010-10-01T12:30:00Z,30.4367,-88.0117,14.2,9.57,354.7,-9999.0,'1111122,1111122,1111122' 
DISL,ioos:station:DISL:MBLA:1,2010-10-01T13:00:00Z,30.4367,-88.0117,14.2,10.13,357.0,-9999.0,'1111122,1111122,1111122' 
DISL,ioos:station:DISL:MBLA:1,2010-10-01T13:30:00Z,30.4367,-88.0117,14.2,9.7,352.9,-9999.0,'1111122,1111122,1111122' 
DISL,ioos:station:DISL:MBLA:1,2010-10-01T14:00:00Z,30.4367,-88.0117,14.2,9.91,355.5,-9999.0,'1111122,1111122,1111122' 
DISL,ioos:station:DISL:MBLA:1,2010-10-01T14:30:00Z,30.4367,-88.0117,14.2,8.76,358.0,-9999.0,'1111122,1111122,1111122' 
DISL,ioos:station:DISL:MBLA:1,2010-10-01T15:00:00Z,30.4367,-88.0117,14.2,9.29,0.323,-9999.0,'1111122,1111122,1111122' 
DISL,ioos:station:DISL:MBLA:1,2010-10-01T15:30:00Z,30.4367,-88.0117,14.2,8.05,2.946,-9999.0,'1111122,1111122,1111122' 
DISL,ioos:station:DISL:MBLA:1,2010-10-01T16:00:00Z,30.4367,-88.0117,14.2,6.78,357.8,-9999.0,'1111122,1111122,1111122' 
DISL,ioos:station:DISL:MBLA:1,2010-10-01T16:30:00Z,30.4367,-88.0117,14.2,6.45,347.2,-9999.0,'1111122,1111122,1111122' 
DISL,ioos:station:DISL:MBLA:1,2010-10-01T17:00:00Z,30.4367,-88.0117,14.2,6.12,350.5,-9999.0,'1111122,1111122,1111122' 
DISL,ioos:station:DISL:MBLA:1,2010-10-01T17:30:00Z,30.4367,-88.0117,14.2,5.39,0.101,-9999.0,'1111122,1111122,1111122' 
DISL,ioos:station:DISL:MBLA:1,2010-10-01T18:00:00Z,30.4367,-88.0117,14.2,4.42,0.838,-9999.0,'1111122,1111122,1111122' 
DISL,ioos:station:DISL:MBLA:1,2010-10-01T18:30:00Z,30.4367,-88.0117,14.2,3.78,0.038,-9999.0,'1111122,1111122,1111122' 
DISL,ioos:station:DISL:MBLA:1,2010-10-01T19:00:00Z,30.4367,-88.0117,14.2,4.63,356.2,-9999.0,'1111122,1111122,1111122' 
DISL,ioos:station:DISL:MBLA:1,2010-10-01T19:30:00Z,30.4367,-88.0117,14.2,5.67,12.37,-9999.0,'1111122,1111122,1111122' 
DISL,ioos:station:DISL:MBLA:1,2010-10-01T20:00:00Z,30.4367,-88.0117,14.2,6.54,14.89,-9999.0,'1111122,1111122,1111122' 
DISL,ioos:station:DISL:MBLA:1,2010-10-01T20:30:00Z,30.4367,-88.0117,14.2,6.2,16.01,-9999.0,'1111122,1111122,1111122' 
DISL,ioos:station:DISL:MBLA:1,2010-10-01T21:00:00Z,30.4367,-88.0117,14.2,4.76,13.83,-9999.0,'1111122,1111122,1111122' 
DISL,ioos:station:DISL:MBLA:1,2010-10-01T21:30:00Z,30.4367,-88.0117,14.2,5.13,5.16,-9999.0,'1111122,1111122,1111122' 
DISL,ioos:station:DISL:MBLA:1,2010-10-01T22:00:00Z,30.4367,-88.0117,14.2,5.41,10.47,-9999.0,'1111122,1111122,1111122' 
DISL,ioos:station:DISL:MBLA:1,2010-10-01T22:30:00Z,30.4367,-88.0117,14.2,4.96,14.03,-9999.0,'1111122,1111122,1111122' 
DISL,ioos:station:DISL:MBLA:1,2010-10-01T23:00:00Z,30.4367,-88.0117,14.2,5.27,11.46,-9999.0,'1111122,1111122,1111122' 
DISL,ioos:station:DISL:MBLA:1,2010-10-01T23:30:00Z,30.4367,-88.0117,14.2,5.26,5.74,-9999.0,'1111122,1111122,1111122' 
DISL,ioos:station:DISL:MBLA:1,2010-10-02T00:00:00Z,30.4367,-88.0117,14.2,6.59,352.1,-9999.0,'1111122,1111122,1111122' 
DISL,ioos:station:DISL:MBLA:1,2010-10-02T00:30:00Z,30.4367,-88.0117,14.2,6.01,339.6,-9999.0,'1111122,1111122,1111122' 
DISL,ioos:station:DISL:MBLA:1,2010-10-02T01:00:00Z,30.4367,-88.0117,14.2,5.8,341.2,-9999.0,'1111122,1111122,1111122' 
DISL,ioos:station:DISL:MBLA:1,2010-10-02T01:30:00Z,30.4367,-88.0117,14.2,6.74,347.1,-9999.0,'1111122,1111122,1111122' 
DISL,ioos:station:DISL:MBLA:1,2010-10-02T02:00:00Z,30.4367,-88.0117,14.2,7.87,351.6,-9999.0,'1111122,1111122,1111122' 
DISL,ioos:station:DISL:MBLA:1,2010-10-02T02:30:00Z,30.4367,-88.0117,14.2,9.2,354.7,-9999.0,'1111122,1111122,1111122' 
DISL,ioos:station:DISL:MBLA:1,2010-10-02T03:00:00Z,30.4367,-88.0117,14.2,9.83,352.5,-9999.0,'1111122,1111122,1111122' 
DISL,ioos:station:DISL:MBLA:1,2010-10-02T03:30:00Z,30.4367,-88.0117,14.2,9.2,358.8,-9999.0,'1111122,1111122,1111122' 
DISL,ioos:station:DISL:MBLA:1,2010-10-02T04:00:00Z,30.4367,-88.0117,14.2,9.3,3.518,-9999.0,'1111122,1111122,1111122' 
DISL,ioos:station:DISL:MBLA:1,2010-10-02T04:30:00Z,30.4367,-88.0117,14.2,9.8,9.0,-9999.0,'1111122,1111122,1111122' 
DISL,ioos:station:DISL:MBLA:1,2010-10-02T05:00:00Z,30.4367,-88.0117,14.2,8.98,6.508,-9999.0,'1111122,1111122,1111122' 
DISL,ioos:station:DISL:MBLA:1,2010-10-02T05:30:00Z,30.4367,-88.0117,14.2,9.17,1.582,-9999.0,'1111122,1111122,1111122' 
DISL,ioos:station:DISL:MBLA:1,2010-10-02T06:00:00Z,30.4367,-88.0117,14.2,9.01,5.553,-9999.0,'1111122,1111122,1111122' 
DISL,ioos:station:DISL:MBLA:1,2010-10-02T06:30:00Z,30.4367,-88.0117,14.2,8.28,6.591,-9999.0,'1111122,1111122,1111122' 
DISL,ioos:station:DISL:MBLA:1,2010-10-02T07:00:00Z,30.4367,-88.0117,14.2,7.85,1.113,-9999.0,'1111122,1111122,1111122' 
DISL,ioos:station:DISL:MBLA:1,2010-10-02T07:30:00Z,30.4367,-88.0117,14.2,7.32,3.21,-9999.0,'1111122,1111122,1111122' 
DISL,ioos:station:DISL:MBLA:1,2010-10-02T08:00:00Z,30.4367,-88.0117,14.2,7.95,5.086,-9999.0,'1111122,1111122,1111122' 
DISL,ioos:station:DISL:MBLA:1,2010-10-02T08:30:00Z,30.4367,-88.0117,14.2,7.91,1.639,-9999.0,'1111122,1111122,1111122' 
DISL,ioos:station:DISL:MBLA:1,2010-10-02T09:00:00Z,30.4367,-88.0117,14.2,7.74,358.8,-9999.0,'1111122,1111122,1111122' 
DISL,ioos:station:DISL:MBLA:1,2010-10-02T09:30:00Z,30.4367,-88.0117,14.2,7.99,2.286,-9999.0,'1111122,1111122,1111122' 
DISL,ioos:station:DISL:MBLA:1,2010-10-02T10:00:00Z,30.4367,-88.0117,14.2,8.75,7.44,-9999.0,'1111122,1111122,1111122' 
DISL,ioos:station:DISL:MBLA:1,2010-10-02T10:30:00Z,30.4367,-88.0117,14.2,8.89,2.557,-9999.0,'1111122,1111122,1111122' 
DISL,ioos:station:DISL:MBLA:1,2010-10-02T11:00:00Z,30.4367,-88.0117,14.2,8.43,5.398,-9999.0,'1111122,1111122,1111122' 
DISL,ioos:station:DISL:MBLA:1,2010-10-02T11:30:00Z,30.4367,-88.0117,14.2,8.5,4.911,-9999.0,'1111122,1111122,1111122' 
DISL,ioos:station:DISL:MBLA:1,2010-10-02T12:00:00Z,30.4367,-88.0117,14.2,8.33,5.104,-9999.0,'1111122,1111122,1111122' 
DISL,ioos:station:DISL:MBLA:1,2010-10-02T12:30:00Z,30.4367,-88.0117,14.2,7.93,1.923,-9999.0,'1111122,1111122,1111122' 
DISL,ioos:station:DISL:MBLA:1,2010-10-02T13:00:00Z,30.4367,-88.0117,14.2,8.32,359.7,-9999.0,'1111122,1111122,1111122' 
DISL,ioos:station:DISL:MBLA:1,2010-10-02T13:30:00Z,30.4367,-88.0117,14.2,8.12,4.965,-9999.0,'1111122,1111122,1111122' 
DISL,ioos:station:DISL:MBLA:1,2010-10-02T14:00:00Z,30.4367,-88.0117,14.2,7.74,6.848,-9999.0,'1111122,1111122,1111122' 
DISL,ioos:station:DISL:MBLA:1,2010-10-02T14:30:00Z,30.4367,-88.0117,14.2,6.85,12.58,-9999.0,'1111122,1111122,1111122' 
DISL,ioos:station:DISL:MBLA:1,2010-10-02T15:00:00Z,30.4367,-88.0117,14.2,6.1,0.174,-9999.0,'1111122,1111122,1111122' 
DISL,ioos:station:DISL:MBLA:1,2010-10-02T15:30:00Z,30.4367,-88.0117,14.2,5.31,0.027,-9999.0,'1111122,1111122,1111122' 
DISL,ioos:station:DISL:MBLA:1,2010-10-02T16:00:00Z,30.4367,-88.0117,14.2,4.82,354.6,-9999.0,'1111122,1111122,1111122' 
DISL,ioos:station:DISL:MBLA:1,2010-10-02T16:30:00Z,30.4367,-88.0117,14.2,4.56,345.6,-9999.0,'1111122,1111122,1111122' 
DISL,ioos:station:DISL:MBLA:1,2010-10-02T17:00:00Z,30.4367,-88.0117,14.2,3.84,341.8,-9999.0,'1111122,1111122,1111122' 
DISL,ioos:station:DISL:MBLA:1,2010-10-02T17:30:00Z,30.4367,-88.0117,14.2,3.76,339.3,-9999.0,'1111122,1111122,1111122' 
DISL,ioos:station:DISL:MBLA:1,2010-10-02T18:00:00Z,30.4367,-88.0117,14.2,3.96,342.5,-9999.0,'1111122,1111122,1111122' 
DISL,ioos:station:DISL:MBLA:1,2010-10-02T18:30:00Z,30.4367,-88.0117,14.2,4.2,357.3,-9999.0,'1111122,1111122,1111122' 
DISL,ioos:station:DISL:MBLA:1,2010-10-02T19:00:00Z,30.4367,-88.0117,14.2,4.48,345.1,-9999.0,'1111122,1111122,1111122' 
DISL,ioos:station:DISL:MBLA:1,2010-10-02T19:30:00Z,30.4367,-88.0117,14.2,3.95,350.5,-9999.0,'1111122,1111122,1111122' 
DISL,ioos:station:DISL:MBLA:1,2010-10-02T20:00:00Z,30.4367,-88.0117,14.2,3.84,4.756,-9999.0,'1111122,1111122,1111122' 
DISL,ioos:station:DISL:MBLA:1,2010-10-02T20:30:00Z,30.4367,-88.0117,14.2,3.97,3.684,-9999.0,'1111122,1111122,1111122' 
DISL,ioos:station:DISL:MBLA:1,2010-10-02T21:00:00Z,30.4367,-88.0117,14.2,5.31,12.27,-9999.0,'1111122,1111122,1111122' 
DISL,ioos:station:DISL:MBLA:1,2010-10-02T21:30:00Z,30.4367,-88.0117,14.2,6.19,11.12,-9999.0,'1111122,1111122,1111122' 
DISL,ioos:station:DISL:MBLA:1,2010-10-02T22:00:00Z,30.4367,-88.0117,14.2,7.41,15.62,-9999.0,'1111122,1111122,1111122' 
DISL,ioos:station:DISL:MBLA:1,2010-10-02T22:30:00Z,30.4367,-88.0117,14.2,6.34,14.01,-9999.0,'1111122,1111122,1111122' 
DISL,ioos:station:DISL:MBLA:1,2010-10-02T23:00:00Z,30.4367,-88.0117,14.2,6.82,16.96,-9999.0,'1111122,1111122,1111122' 
DISL,ioos:station:DISL:MBLA:1,2010-10-02T23:30:00Z,30.4367,-88.0117,14.2,6.63,12.2,-9999.0,'1111122,1111122,1111122' 
DISL,ioos:station:DISL:MBLA:1,2010-10-03T00:00:00Z,30.4367,-88.0117,14.2,6.47,10.51,-9999.0,'1111122,1111122,1111122' 
DISL,ioos:station:DISL:MBLA:1,2010-10-03T00:30:00Z,30.4367,-88.0117,14.2,5.78,1.086,-9999.0,'1111122,1111122,1111122' 
DISL,ioos:station:DISL:MBLA:1,2010-10-03T01:00:00Z,30.4367,-88.0117,14.2,5.37,354.8,-9999.0,'1111122,1111122,1111122' 
DISL,ioos:station:DISL:MBLA:1,2010-10-03T01:30:00Z,30.4367,-88.0117,14.2,4.36,340.2,-9999.0,'1111122,1111122,1111122' 
DISL,ioos:station:DISL:MBLA:1,2010-10-03T02:00:00Z,30.4367,-88.0117,14.2,4.56,341.3,-9999.0,'1111122,1111122,1111122' 
DISL,ioos:station:DISL:MBLA:1,2010-10-03T02:30:00Z,30.4367,-88.0117,14.2,5.08,339.9,-9999.0,'1111122,1111122,1111122' 
DISL,ioos:station:DISL:MBLA:1,2010-10-03T03:00:00Z,30.4367,-88.0117,14.2,5.92,345.4,-9999.0,'1111122,1111122,1111122' 
DISL,ioos:station:DISL:MBLA:1,2010-10-03T03:30:00Z,30.4367,-88.0117,14.2,5.82,346.3,-9999.0,'1111122,1111122,1111122' 
DISL,ioos:station:DISL:MBLA:1,2010-10-03T04:00:00Z,30.4367,-88.0117,14.2,7.33,358.4,-9999.0,'1111122,1111122,1111122' 
DISL,ioos:station:DISL:MBLA:1,2010-10-03T04:30:00Z,30.4367,-88.0117,14.2,7.96,355.2,-9999.0,'1111122,1111122,1111122' 
DISL,ioos:station:DISL:MBLA:1,2010-10-03T05:00:00Z,30.4367,-88.0117,14.2,7.21,348.3,-9999.0,'1111122,1111122,1111122' 
DISL,ioos:station:DISL:MBLA:1,2010-10-03T05:30:00Z,30.4367,-88.0117,14.2,10.72,3.925,-9999.0,'1111122,1111122,1111122' 
DISL,ioos:station:DISL:MBLA:1,2010-10-03T06:00:00Z,30.4367,-88.0117,14.2,11.08,4.839,-9999.0,'1111122,1111122,1111122' 
DISL,ioos:station:DISL:MBLA:1,2010-10-03T06:30:00Z,30.4367,-88.0117,14.2,11.32,3.244,-9999.0,'1111122,1111122,1111122' 
DISL,ioos:station:DISL:MBLA:1,2010-10-03T07:00:00Z,30.4367,-88.0117,14.2,11.1,10.72,-9999.0,'1111122,1111122,1111122' 
DISL,ioos:station:DISL:MBLA:1,2010-10-03T07:30:00Z,30.4367,-88.0117,14.2,10.45,12.56,-9999.0,'1111122,1111122,1111122' 
DISL,ioos:station:DISL:MBLA:1,2010-10-03T08:00:00Z,30.4367,-88.0117,14.2,10.71,4.239,-9999.0,'1111122,1111122,1111122' 
DISL,ioos:station:DISL:MBLA:1,2010-10-03T08:30:00Z,30.4367,-88.0117,14.2,10.44,1.201,-9999.0,'1111122,1111122,1111122' 
DISL,ioos:station:DISL:MBLA:1,2010-10-03T09:00:00Z,30.4367,-88.0117,14.2,11.98,357.8,-9999.0,'1111122,1111122,1111122' 
DISL,ioos:station:DISL:MBLA:1,2010-10-03T09:30:00Z,30.4367,-88.0117,14.2,13.95,1.35,-9999.0,'1111122,1111122,1111122' 
DISL,ioos:station:DISL:MBLA:1,2010-10-03T10:00:00Z,30.4367,-88.0117,14.2,13.13,355.0,-9999.0,'1111122,1111122,1111122' 
DISL,ioos:station:DISL:MBLA:1,2010-10-03T10:30:00Z,30.4367,-88.0117,14.2,13.83,1.901,-9999.0,'1111122,1111122,1111122' 
DISL,ioos:station:DISL:MBLA:1,2010-10-03T11:00:00Z,30.4367,-88.0117,14.2,14.04,0.679,-9999.0,'1111122,1111122,1111122' 
DISL,ioos:station:DISL:MBLA:1,2010-10-03T11:30:00Z,30.4367,-88.0117,14.2,13.51,0.46,-9999.0,'1111122,1111122,1111122' 
DISL,ioos:station:DISL:MBLA:1,2010-10-03T12:00:00Z,30.4367,-88.0117,14.2,13.75,0.342,-9999.0,'1111122,1111122,1111122' 
DISL,ioos:station:DISL:MBLA:1,2010-10-03T12:30:00Z,30.4367,-88.0117,14.2,13.85,359.3,-9999.0,'1111122,1111122,1111122' 
DISL,ioos:station:DISL:MBLA:1,2010-10-03T13:00:00Z,30.4367,-88.0117,14.2,13.66,2.31,-9999.0,'1111122,1111122,1111122' 
DISL,ioos:station:DISL:MBLA:1,2010-10-03T13:30:00Z,30.4367,-88.0117,14.2,13.66,0.515,-9999.0,'1111122,1111122,1111122' 
DISL,ioos:station:DISL:MBLA:1,2010-10-03T14:00:00Z,30.4367,-88.0117,14.2,12.7,3.426,-9999.0,'1111122,1111122,1111122' 
DISL,ioos:station:DISL:MBLA:1,2010-10-03T14:30:00Z,30.4367,-88.0117,14.2,12.1,5.961,-9999.0,'1111122,1111122,1111122' 
DISL,ioos:station:DISL:MBLA:1,2010-10-03T15:00:00Z,30.4367,-88.0117,14.2,11.07,1.94,-9999.0,'1111122,1111122,1111122' 
DISL,ioos:station:DISL:MBLA:1,2010-10-03T15:30:00Z,30.4367,-88.0117,14.2,10.14,353.9,-9999.0,'1111122,1111122,1111122' 
DISL,ioos:station:DISL:MBLA:1,2010-10-03T16:00:00Z,30.4367,-88.0117,14.2,9.33,357.0,-9999.0,'1111122,1111122,1111122' 
DISL,ioos:station:DISL:MBLA:1,2010-10-03T16:30:00Z,30.4367,-88.0117,14.2,9.75,356.9,-9999.0,'1111122,1111122,1111122' 
DISL,ioos:station:DISL:MBLA:1,2010-10-03T17:00:00Z,30.4367,-88.0117,14.2,9.22,357.6,-9999.0,'1111122,1111122,1111122' 
DISL,ioos:station:DISL:MBLA:1,2010-10-03T17:30:00Z,30.4367,-88.0117,14.2,9.5,357.5,-9999.0,'1111122,1111122,1111122' 
DISL,ioos:station:DISL:MBLA:1,2010-10-03T18:00:00Z,30.4367,-88.0117,14.2,9.28,1.663,-9999.0,'1111122,1111122,1111122' 
DISL,ioos:station:DISL:MBLA:1,2010-10-03T18:30:00Z,30.4367,-88.0117,14.2,9.05,355.0,-9999.0,'1111122,1111122,1111122' 
DISL,ioos:station:DISL:MBLA:1,2010-10-03T19:00:00Z,30.4367,-88.0117,14.2,9.21,353.1,-9999.0,'1111122,1111122,1111122' 
DISL,ioos:station:DISL:MBLA:1,2010-10-03T19:30:00Z,30.4367,-88.0117,14.2,8.32,0.612,-9999.0,'1111122,1111122,1111122' 
DISL,ioos:station:DISL:MBLA:1,2010-10-03T20:00:00Z,30.4367,-88.0117,14.2,8.59,359.0,-9999.0,'1111122,1111122,1111122' 
DISL,ioos:station:DISL:MBLA:1,2010-10-03T20:30:00Z,30.4367,-88.0117,14.2,9.42,358.8,-9999.0,'1111122,1111122,1111122' 
DISL,ioos:station:DISL:MBLA:1,2010-10-03T21:00:00Z,30.4367,-88.0117,14.2,9.77,358.1,-9999.0,'1111122,1111122,1111122' 
DISL,ioos:station:DISL:MBLA:1,2010-10-03T21:30:00Z,30.4367,-88.0117,14.2,10.55,355.3,-9999.0,'1111122,1111122,1111122' 
DISL,ioos:station:DISL:MBLA:1,2010-10-03T22:00:00Z,30.4367,-88.0117,14.2,11.36,359.7,-9999.0,'1111122,1111122,1111122' 
DISL,ioos:station:DISL:MBLA:1,2010-10-03T22:30:00Z,30.4367,-88.0117,14.2,11.32,10.29,-9999.0,'1111122,1111122,1111122' 
DISL,ioos:station:DISL:MBLA:1,2010-10-03T23:00:00Z,30.4367,-88.0117,14.2,11.69,9.0,-9999.0,'1111122,1111122,1111122' 
DISL,ioos:station:DISL:MBLA:1,2010-10-03T23:30:00Z,30.4367,-88.0117,14.2,11.39,9.63,-9999.0,'1111122,1111122,1111122' 
DISL,ioos:station:DISL:MBLA:1,2010-10-04T00:00:00Z,30.4367,-88.0117,14.2,12.27,358.3,-9999.0,'1111122,1111122,1111122' 
DISL,ioos:station:DISL:MBLA:1,2010-10-04T00:30:00Z,30.4367,-88.0117,14.2,12.16,356.2,-9999.0,'1111122,1111122,1111122' 
DISL,ioos:station:DISL:MBLA:1,2010-10-04T01:00:00Z,30.4367,-88.0117,14.2,12.25,357.5,-9999.0,'1111122,1111122,1111122' 
DISL,ioos:station:DISL:MBLA:1,2010-10-04T01:30:00Z,30.4367,-88.0117,14.2,13.14,0.181,-9999.0,'1111122,1111122,1111122' 
DISL,ioos:station:DISL:MBLA:1,2010-10-04T02:00:00Z,30.4367,-88.0117,14.2,12.74,3.935,-9999.0,'1111122,1111122,1111122' 
DISL,ioos:station:DISL:MBLA:1,2010-10-04T02:30:00Z,30.4367,-88.0117,14.2,12.46,6.499,-9999.0,'1111122,1111122,1111122' 
DISL,ioos:station:DISL:MBLA:1,2010-10-04T03:00:00Z,30.4367,-88.0117,14.2,12.08,7.02,-9999.0,'1111122,1111122,1111122' 
DISL,ioos:station:DISL:MBLA:1,2010-10-04T03:30:00Z,30.4367,-88.0117,14.2,11.18,2.221,-9999.0,'1111122,1111122,1111122' 
DISL,ioos:station:DISL:MBLA:1,2010-10-04T04:00:00Z,30.4367,-88.0117,14.2,12.33,5.169,-9999.0,'1111122,1111122,1111122' 
DISL,ioos:station:DISL:MBLA:1,2010-10-04T04:30:00Z,30.4367,-88.0117,14.2,13.58,6.174,-9999.0,'1111122,1111122,1111122' 
DISL,ioos:station:DISL:MBLA:1,2010-10-04T05:00:00Z,30.4367,-88.0117,14.2,14.53,7.95,-9999.0,'1111122,1111122,1111122' 
DISL,ioos:station:DISL:MBLA:1,2010-10-04T05:30:00Z,30.4367,-88.0117,14.2,13.9,11.26,-9999.0,'1111122,1111122,1111122' 
DISL,ioos:station:DISL:MBLA:1,2010-10-04T06:00:00Z,30.4367,-88.0117,14.2,14.55,12.86,-9999.0,'1111122,1111122,1111122' 
DISL,ioos:station:DISL:MBLA:1,2010-10-04T06:30:00Z,30.4367,-88.0117,14.2,14.66,16.9,-9999.0,'1111122,1111122,1111122' 
DISL,ioos:station:DISL:MBLA:1,2010-10-04T07:00:00Z,30.4367,-88.0117,14.2,13.52,18.06,-9999.0,'1111122,1111122,1111122' 
DISL,ioos:station:DISL:MBLA:1,2010-10-04T07:30:00Z,30.4367,-88.0117,14.2,13.3,20.13,-9999.0,'1111122,1111122,1111122' 
DISL,ioos:station:DISL:MBLA:1,2010-10-04T08:00:00Z,30.4367,-88.0117,14.2,13.22,22.37,-9999.0,'1111122,1111122,1111122' 
DISL,ioos:station:DISL:MBLA:1,2010-10-04T08:30:00Z,30.4367,-88.0117,14.2,12.38,14.75,-9999.0,'1111122,1111122,1111122' 
DISL,ioos:station:DISL:MBLA:1,2010-10-04T09:00:00Z,30.4367,-88.0117,14.2,12.26,16.25,-9999.0,'1111122,1111122,1111122' 
DISL,ioos:station:DISL:MBLA:1,2010-10-04T09:30:00Z,30.4367,-88.0117,14.2,11.45,10.88,-9999.0,'1111122,1111122,1111122' 
DISL,ioos:station:DISL:MBLA:1,2010-10-04T10:00:00Z,30.4367,-88.0117,14.2,12.09,14.99,-9999.0,'1111122,1111122,1111122' 
DISL,ioos:station:DISL:MBLA:1,2010-10-04T10:30:00Z,30.4367,-88.0117,14.2,11.82,17.24,-9999.0,'1111122,1111122,1111122' 
DISL,ioos:station:DISL:MBLA:1,2010-10-04T11:00:00Z,30.4367,-88.0117,14.2,11.38,15.4,-9999.0,'1111122,1111122,1111122' 
DISL,ioos:station:DISL:MBLA:1,2010-10-04T11:30:00Z,30.4367,-88.0117,14.2,11.57,14.19,-9999.0,'1111122,1111122,1111122' 
DISL,ioos:station:DISL:MBLA:1,2010-10-04T12:00:00Z,30.4367,-88.0117,14.2,12.16,20.19,-9999.0,'1111122,1111122,1111122' 
DISL,ioos:station:DISL:MBLA:1,2010-10-04T12:30:00Z,30.4367,-88.0117,14.2,11.25,12.76,-9999.0,'1111122,1111122,1111122' 
DISL,ioos:station:DISL:MBLA:1,2010-10-04T13:00:00Z,30.4367,-88.0117,14.2,10.34,10.41,-9999.0,'1111122,1111122,1111122' 
DISL,ioos:station:DISL:MBLA:1,2010-10-04T13:30:00Z,30.4367,-88.0117,14.2,10.61,20.92,-9999.0,'1111122,1111122,1111122' 
DISL,ioos:station:DISL:MBLA:1,2010-10-04T14:00:00Z,30.4367,-88.0117,14.2,9.7,16.32,-9999.0,'1111122,1111122,1111122' 
DISL,ioos:station:DISL:MBLA:1,2010-10-04T14:30:00Z,30.4367,-88.0117,14.2,10.26,15.02,-9999.0,'1111122,1111122,1111122' 
DISL,ioos:station:DISL:MBLA:1,2010-10-04T15:00:00Z,30.4367,-88.0117,14.2,9.98,10.3,-9999.0,'1111122,1111122,1111122' 
DISL,ioos:station:DISL:MBLA:1,2010-10-04T15:30:00Z,30.4367,-88.0117,14.2,9.79,6.556,-9999.0,'1111122,1111122,1111122' 
DISL,ioos:station:DISL:MBLA:1,2010-10-04T16:00:00Z,30.4367,-88.0117,14.2,10.53,2.954,-9999.0,'1111122,1111122,1111122' 
DISL,ioos:station:DISL:MBLA:1,2010-10-04T16:30:00Z,30.4367,-88.0117,14.2,11.41,359.4,-9999.0,'1111122,1111122,1111122' 
DISL,ioos:station:DISL:MBLA:1,2010-10-04T17:00:00Z,30.4367,-88.0117,14.2,10.96,358.8,-9999.0,'1111122,1111122,1111122' 
DISL,ioos:station:DISL:MBLA:1,2010-10-04T17:30:00Z,30.4367,-88.0117,14.2,10.52,358.2,-9999.0,'1111122,1111122,1111122' 
DISL,ioos:station:DISL:MBLA:1,2010-10-04T18:00:00Z,30.4367,-88.0117,14.2,10.01,352.5,-9999.0,'1111122,1111122,1111122' 
DISL,ioos:station:DISL:MBLA:1,2010-10-04T18:30:00Z,30.4367,-88.0117,14.2,9.28,3.575,-9999.0,'1111122,1111122,1111122' 
DISL,ioos:station:DISL:MBLA:1,2010-10-04T19:00:00Z,30.4367,-88.0117,14.2,9.44,355.1,-9999.0,'1111122,1111122,1111122' 
DISL,ioos:station:DISL:MBLA:1,2010-10-04T19:30:00Z,30.4367,-88.0117,14.2,8.7,0.061,-9999.0,'1111122,1111122,1111122' 
DISL,ioos:station:DISL:MBLA:1,2010-10-04T20:00:00Z,30.4367,-88.0117,14.2,9.05,5.086,-9999.0,'1111122,1111122,1111122' 
DISL,ioos:station:DISL:MBLA:1,2010-10-04T20:30:00Z,30.4367,-88.0117,14.2,9.26,13.99,-9999.0,'1111122,1111122,1111122' 
DISL,ioos:station:DISL:MBLA:1,2010-10-04T21:00:00Z,30.4367,-88.0117,14.2,9.47,10.68,-9999.0,'1111122,1111122,1111122' 
DISL,ioos:station:DISL:MBLA:1,2010-10-04T21:30:00Z,30.4367,-88.0117,14.2,9.99,12.23,-9999.0,'1111122,1111122,1111122' 
DISL,ioos:station:DISL:MBLA:1,2010-10-04T22:00:00Z,30.4367,-88.0117,14.2,10.13,11.79,-9999.0,'1111122,1111122,1111122' 
DISL,ioos:station:DISL:MBLA:1,2010-10-04T22:30:00Z,30.4367,-88.0117,14.2,9.92,10.07,-9999.0,'1111122,1111122,1111122' 
DISL,ioos:station:DISL:MBLA:1,2010-10-04T23:00:00Z,30.4367,-88.0117,14.2,9.81,4.553,-9999.0,'1111122,1111122,1111122' 
DISL,ioos:station:DISL:MBLA:1,2010-10-04T23:30:00Z,30.4367,-88.0117,14.2,10.74,1.031,-9999.0,'1111122,1111122,1111122' 
DISL,ioos:station:DISL:MBLA:1,2010-10-05T00:00:00Z,30.4367,-88.0117,14.2,10.22,352.2,-9999.0,'1111122,1111122,1111122' 
DISL,ioos:station:DISL:MBLA:1,2010-10-05T00:30:00Z,30.4367,-88.0117,14.2,11.26,355.4,-9999.0,'1111122,1111122,1111122' 
DISL,ioos:station:DISL:MBLA:1,2010-10-05T01:00:00Z,30.4367,-88.0117,14.2,11.61,357.3,-9999.0,'1111122,1111122,1111122' 
DISL,ioos:station:DISL:MBLA:1,2010-10-05T01:30:00Z,30.4367,-88.0117,14.2,11.68,359.9,-9999.0,'1111122,1111122,1111122' 
DISL,ioos:station:DISL:MBLA:1,2010-10-05T02:00:00Z,30.4367,-88.0117,14.2,11.5,1.811,-9999.0,'1111122,1111122,1111122' 
DISL,ioos:station:DISL:MBLA:1,2010-10-05T02:30:00Z,30.4367,-88.0117,14.2,11.83,5.036,-9999.0,'1111122,1111122,1111122' 
DISL,ioos:station:DISL:MBLA:1,2010-10-05T03:00:00Z,30.4367,-88.0117,14.2,10.5,5.719,-9999.0,'1111122,1111122,1111122' 
DISL,ioos:station:DISL:MBLA:1,2010-10-05T03:30:00Z,30.4367,-88.0117,14.2,11.31,10.26,-9999.0,'1111122,1111122,1111122' 